Simultaneous Nadir Overpasses (SNOs) Predictions

Prediction of SNOs between GOES-14 and NPP Satellite Orbit:

Table of predicted SNOs for the next 14.0 days since TLE Epoch: 6/16/2022
Index Date Time (GOES-14) GOES-14 Lat,Lon NPP Lat,Lon Distance(km) Time Diff (sec)
1 06/18/2022 08:23:48 -0.09,-104.50 0.01,-104.96 52.56 80
2 06/19/2022 08:07:44 -0.08,-104.50 -1.00,-100.43 464.58 80
3 06/20/2022 20:27:04 0.11,-104.78 -0.12,-105.76 111.05 80
4 06/21/2022 20:11:00 0.09,-104.79 0.90,-101.23 406.01 80
5 06/23/2022 08:30:09 -0.13,-104.53 0.30,-106.50 224.17 80
6 06/24/2022 08:14:05 -0.11,-104.54 -0.66,-101.96 293.19 80
7 06/25/2022 20:33:25 0.15,-104.83 -0.39,-107.30 281.80 80
8 06/26/2022 20:17:21 0.14,-104.84 0.57,-102.77 235.28 80
9 06/28/2022 08:36:30 -0.18,-104.57 0.62,-108.04 395.52 80
10 06/29/2022 08:20:27 -0.16,-104.58 -0.40,-103.51 121.60 80
